Location: Newark
(25.4617°S, 30.9297°E)
Time: 00:37:05
(UTC+00:00)

LightSail 2 - Visible Passes

Search period start: 14 October 2019 00:00
Search period end: 24 October 2019 00:00
Orbit: 707 x 723 km, 24.0° (Epoch: 13 October)

Date Brightness Start Highest point End Pass type
(mag) Time Alt. Az. Time Alt. Az. Time Alt. Az.
14 Oct 6.4 02:16:42 16° NNW 02:19:56 30° NNE 02:24:24 10° E visible
15 Oct 6.7 01:22:44 23° NNE 01:22:44 23° NNE 01:26:34 10° ENE visible
16 Oct 5.8 02:07:43 25° NW 02:10:16 44° NNE 02:15:10 10° E visible
17 Oct 6.3 01:13:40 33° NE 01:13:40 33° NE 01:17:30 10° E visible
17 Oct 5.3 02:53:01 10° WNW 02:58:10 68° N 03:03:18 10° E visible
18 Oct 8.0 00:19:35 11° ENE 00:19:35 11° ENE 00:19:42 10° ENE visible
18 Oct 5.3 01:58:34 34° NW 02:00:37 59° N 02:05:44 10° E visible
19 Oct 6.1 01:04:27 39° ENE 01:04:27 39° ENE 01:08:07 10° E visible
19 Oct 5.2 02:43:27 10° W 02:48:35 76° N 02:53:45 10° E visible
20 Oct 8.0 00:10:20 11° E 00:10:20 11° E 00:10:27 10° E visible
20 Oct 5.1 01:49:19 43° WNW 01:51:00 72° N 01:56:10 10° E visible
21 Oct 6.2 00:55:11 39° ENE 00:55:11 39° ENE 00:58:33 10° E visible
21 Oct 5.2 02:34:11 12° W 02:38:57 76° N 02:44:08 10° E visible
22 Oct 5.1 01:40:03 51° WNW 01:41:21 77° N 01:46:33 10° E visible
23 Oct 6.5 00:45:58 34° E 00:45:58 34° E 00:48:56 10° E visible
23 Oct 5.2 02:24:57 15° W 02:29:17 67° N 02:34:26 10° ENE visible
